Regional Weather Roundup
Issued by NWS

Home | Current Version | Previous Version | Graphics & Text | Print | Product List | Glossary On
Versions: 1 2 3 4 5 6 7 8 9 10 11 12 13 14 15 16 17 18 19 20 21 22 23 24 25 26 27 28 29 30 31 32 33 34 35 36 37 38 39 40 41 42 43 44 45 46 47 48 49 50
000
ASUS43 KIND 220409
RWRIN

WEATHER ROUNDUP FOR INDIANA
NATIONAL WEATHER SERVICE INDIANAPOLIS IN
1200 AM EDT SAT JUL 22 2017

NOTE: "FAIR" INDICATES FEW OR NO CLOUDS BELOW 12,000 FEET WITH NO
SIGNIFICANT WEATHER AND/OR OBSTRUCTIONS TO VISIBILITY.

* - STATION DOES NOT REPORT WEATHER SUCH AS PRECIPITATION OR FOG.

+ - STATION NOT QUALITY CONTROLLED BY THE NATIONAL WEATHER SERVICE.
    USE DATA WITH CAUTION...ESPECIALLY DEWPOINT AND RELATIVE
    HUMIDITY OBSERVATIONS.

INZ001>003-010>013-019-020-220500-
NORTHWEST INDIANA

CITY           SKY/WX    TMP DP  RH WIND       PRES   REMARKS
GARY /AIRPORT/ CLOUDY    76  74  93 CALM      29.90S
KNOX *+        CLOUDY    70  70 100 CALM      29.92F
LA PORTE +     RAIN      71  70  96 SE5       29.93F
MICHIGAN CITY+ RAIN      72  72 100 SE3       29.92F
MONTICELLO +   CLOUDY    76  74  96 E3        29.90S
RENSSELAER +   CLOUDY    73  72  94 E6        29.89F
VALPARAISO     RAIN      73  72  96 NE3       29.92F FOG

$$

LMZ046-743>745-220500-
SOUTHERN LAKE MICHIGAN

STATION/POSITION TIME  TEMP    WIND        PRES    WAVE
                       AIR SEA DIR/SP/G            HT
                 (UTC) (F)     (DEG/KT/KT) (MB)    (FT)
BURNS HARBOR     0340   75     140/  6/ 10 1012.9F
MICHIGAN CITY    0340   72     110/  5/  6   N/A
5NW MICH CITY    0400   73 75  150/ 10/ 12   N/A     1

$$

INZ004-005-014>016-021>024-220500-
NORTH CENTRAL INDIANA

CITY           SKY/WX    TMP DP  RH WIND       PRES   REMARKS
GOSHEN         LGT RAIN  77  70  79 W8        29.97R
LOGANSPORT +   LGT RAIN  75  68  78 S8        29.94S
PERU/GRISSOM   TSTM      76  73  87 SW13G35   29.94R
ROCHESTER +    CLOUDY    77  75  94 E3        29.92F THUNDER
SOUTH BEND     TSTM      71  70  96 NE6       29.94F FOG
WARSAW +       RAIN      75  72  88 CALM      29.95S

$$

INZ006>009-017-018-025>027-220500-
NORTHEAST INDIANA

CITY           SKY/WX    TMP DP  RH WIND       PRES   REMARKS
AUBURN +       CLOUDY    73  68  83 CALM      29.95F
FORT WAYNE     CLOUDY    74  69  85 S5        29.95F
HUNTINGTON +   CLOUDY    73  72  96 CALM      29.95F
KENDALLVILLE + MOCLDY    76  71  84 S6        29.95F

$$

INZ028-029-035-036-043>045-051>053-220500-
WEST CENTRAL INDIANA

CITY           SKY/WX    TMP DP  RH WIND       PRES   REMARKS
GREENCASTLE +  CLOUDY    77  77 100 CALM      29.94S
LAFAYETTE      CLOUDY    73  70  90 E5        29.89F THUNDER
TERRE HAUTE    TSTM      82  75  79 SW13      29.92S

$$

INZ030>032-037>040-046>048-054>057-064-065-220500-
CENTRAL INDIANA

CITY           SKY/WX    TMP DP  RH WIND       PRES   REMARKS
CP ATTERBURY + CLEAR     75  73  94 CALM      29.96S
FRANKFORT +    CLOUDY    78  76  91 NE5       29.95F
INDIANAPOLIS   CLOUDY    79  76  90 E9        29.93F
-EAGLE CREEK   CLOUDY    78  73  84 SE5       29.93F
KOKOMO +       CLOUDY    77  74  90 W18       29.97R THUNDER
MARION +       CLOUDY    75  73  94 SE3       29.96S
MT COMFORT *+  CLOUDY    77  73  88 SE6       29.96S
SHELBYVILLE    PTCLDY    78  72  81 SE6       29.95S
ZIONSVILLE +   CLOUDY    78  73  84 SE6       29.95F

$$

INZ033-034-041-042-049-050-058-059-220500-
EAST CENTRAL INDIANA

CITY           SKY/WX    TMP DP  RH WIND       PRES   REMARKS
MUNCIE         CLOUDY    80  72  76 S6        29.96R
RICHMOND +     CLEAR     72  70  94 SE5       30.00S

$$

INZ060-061-067>069-081>083-085>088-220500-
SOUTHWEST INDIANA

CITY           SKY/WX    TMP DP  RH WIND       PRES   REMARKS
EVANSVILLE     CLEAR     83  75  77 SW5       29.95S
HUNTINGBURG *+ MOCLDY    83  76  79 S7        29.96S

$$

INZ062-063-066-070>080-084-089>092-220500-
SOUTH CENTRAL AND SOUTHEAST INDIANA

CITY           SKY/WX    TMP DP  RH WIND       PRES   REMARKS
BEDFORD +      CLEAR     82  75  78 CALM      29.95S
BLOOMINGTON    CLEAR     83  76  79 SE7       29.94F
MADISON *+     CLEAR     79  73  83 CALM      29.99S
NORTH VERNON + PTCLDY    79  75  89 CALM      29.98R
SEYMOUR +      PTCLDY    81  79  94 CALM      29.95F FOG

$$




USA.gov is the U.S. government's official web portal to all federal, state and local government web resources and services.